Weather History for KNQX - April, 2013

Change the Weather History Date:

Thursday, April 4, 2013

  Actual Average (KEYW) Record (KEYW)
Temperature  
Mean Temperature 78 °F 75 °F  
Max Temperature 84 °F 80 °F 90 °F (1877)
Min Temperature 75 °F 70 °F 55 °F (2005)
Degree Days  
Heating Degree Days 0 0  
Month to date heating degree days 0  
Since 1 July heating degree days 73  
Cooling Degree Days 14 10  
Month to date cooling degree days 40  
Year to date cooling degree days 650  
Growing Degree Days 28 (Base 50)    
Moisture  
Dew Point 73 °F    
Average Humidity 85    
Maximum Humidity 94    
Minimum Humidity 65    
Precipitation  
Precipitation 0.00 in 0.07 in 4.22 in (1948)
Month to date precipitation 0.29  
Year to date precipitation 5.87  
Snow  
Snow 0.00 in - - ()
Month to date snowfall  
Since 1 July snowfall  
Snow Depth -    
Sea Level Pressure  
Sea Level Pressure 29.98 in    
Wind  
Wind Speed 10 mph (SE)    
Max Wind Speed 15 mph    
Max Gust Speed -    
Visibility 10 miles    
Events      
T = Trace of Precipitation, MM = Missing Value Source: NWS Daily Summary

Daily Weather History Graph

Daily Weather History Graph

Search for Another Location

Airport or City:

Trip Planner

Search our weather history database for the weather conditions in past years. The results will help you decide how hot, cold, wet, or windy it might be!

Date:

Astronomy

Apr. 04, 2013 Rise Set
Actual Time 7:15 AM EDT 7:44 PM EDT
Civil Twilight 6:52 AM EDT 8:07 PM EDT
Nautical Twilight 6:25 AM EDT 8:34 PM EDT
Astronomical Twilight 5:58 AM EDT 9:01 PM EDT
Moon 3:05 AM EDT (4/4) 2:34 PM EDT (4/4)
Length of Visible Light 13h 15m
Length of Day
12h 29m
Waning Crescent, 34% of the Moon is Illuminated
Apr 4
Waning Crescent
Apr 10
New
Apr 18
First Quarter
Apr 25
Full
May 2
Last Quarter

Hourly Weather History & Observations

Time (EDT) Temp. Heat Index Dew Point Humidity Pressure Visibility Wind Dir Wind Speed Gust Speed Precip Events Conditions
12:53 AM 75.0 °F - 72.0 °F 90% 30.03 in 10.0 mi ESE 10.4 mph - N/A   Clear
1:53 AM 75.0 °F - 72.0 °F 90% 30.02 in 10.0 mi ESE 10.4 mph - N/A   Clear
2:43 AM 75.2 °F - 71.6 °F 89% 30.01 in 10.0 mi ESE 10.4 mph - N/A   Mostly Cloudy
2:53 AM 75.0 °F - 72.0 °F 90% 30.00 in 10.0 mi ESE 9.2 mph - N/A   Mostly Cloudy
3:46 AM 75.2 °F - 71.6 °F 89% 29.98 in 10.0 mi SE 11.5 mph - N/A   Scattered Clouds
3:53 AM 75.0 °F - 72.0 °F 90% 29.98 in 10.0 mi ESE 11.5 mph - N/A   Mostly Cloudy
4:25 AM 75.2 °F - 71.6 °F 89% 29.97 in 4.0 mi SE 11.5 mph - N/A   Scattered Clouds
4:51 AM 75.2 °F - 73.4 °F 94% 29.99 in 10.0 mi ESE 8.1 mph - N/A   Mostly Cloudy
4:53 AM 75.0 °F - 73.0 °F 94% 29.99 in 10.0 mi SE 6.9 mph - N/A   Mostly Cloudy
5:53 AM 75.9 °F - 73.0 °F 91% 29.98 in 10.0 mi SE 9.2 mph - N/A   Overcast
6:50 AM 75.2 °F - 73.4 °F 94% 30.00 in 10.0 mi SE 6.9 mph - N/A   Scattered Clouds
6:53 AM 75.0 °F - 73.0 °F 94% 29.99 in 10.0 mi SE 6.9 mph - N/A   Scattered Clouds
7:53 AM 75.9 °F - 73.0 °F 91% 29.99 in 10.0 mi ESE 8.1 mph - N/A   Partly Cloudy
8:53 AM 78.1 °F - 73.9 °F 87% 29.99 in 10.0 mi SE 11.5 mph - N/A   Clear
9:53 AM 80.1 °F 84.5 °F 73.9 °F 81% 30.00 in 10.0 mi SE 15.0 mph - N/A   Clear
10:53 AM 81.0 °F 86.2 °F 73.9 °F 79% 29.99 in 10.0 mi SSE 11.5 mph - N/A   Clear
11:53 AM 82.0 °F 87.9 °F 73.9 °F 76% 30.01 in 10.0 mi SSE 11.5 mph - N/A   Scattered Clouds
12:53 PM 82.0 °F 87.4 °F 73.0 °F 74% 30.00 in 10.0 mi SSE 11.5 mph - N/A   Mostly Cloudy
1:53 PM 82.0 °F 87.4 °F 73.0 °F 74% 29.99 in 10.0 mi SSE 9.2 mph - N/A   Mostly Cloudy
2:53 PM 81.0 °F 85.8 °F 73.0 °F 77% 29.98 in 10.0 mi SSE 10.4 mph - N/A   Mostly Cloudy
3:53 PM 82.0 °F 87.4 °F 73.0 °F 74% 29.96 in 10.0 mi SSE 6.9 mph - N/A   Mostly Cloudy
4:53 PM 81.0 °F 85.2 °F 72.0 °F 74% 29.96 in 10.0 mi SE 4.6 mph - N/A   Mostly Cloudy
5:53 PM 82.9 °F 87.0 °F 70.0 °F 65% 29.96 in 10.0 mi North 4.6 mph - N/A   Scattered Clouds
6:53 PM 81.0 °F 84.1 °F 69.1 °F 67% 29.96 in 10.0 mi North 8.1 mph - N/A   Mostly Cloudy
7:53 PM 75.9 °F - 71.1 °F 85% 29.94 in 10.0 mi NE 8.1 mph - N/A   Mostly Cloudy
8:53 PM 75.9 °F - 72.0 °F 87% 29.93 in 10.0 mi East 10.4 mph - N/A   Mostly Cloudy
9:53 PM 77.0 °F - 73.9 °F 90% 29.94 in 10.0 mi SE 11.5 mph - N/A   Scattered Clouds
10:53 PM 75.9 °F - 72.0 °F 87% 29.96 in 10.0 mi SE 10.4 mph - N/A   Clear
11:53 PM 77.0 °F - 73.9 °F 90% 29.98 in 10.0 mi SE 9.2 mph - N/A   Mostly Cloudy